• Join FlightAware (Why Join?)
  • Login
  • US Flag GB Flag 
20:16 EDT


 

Airport Tracker/Info


-or-


 

Live Flight TrackerFlight Track Log ✈ RPA3392 ✈ 13-May-2013 ✈ KMSP - KDCA

Flight Track Log - Related Links

Times and Time Zones

All times are in EDT time to prevent confusion due to time zone crossing. See the RPA3392 flight status page for this flight to view local times or setup timezone preferences in your user account.

Time Position Orientation Groundspeed Altitude Reporting Facility
EDT Latitude Longitude Course Direction KTS MPH feet Rate Location/Type
17:58 44.8333 -93.1667 115° Southeast 205 236 3,400  Level Minneapolis TRACON
17:59 44.8167 -93.1000 109° East 253 291 5,200 2,040 Climbing Minneapolis TRACON
18:00 44.7597 -92.7759 111° Southeast  Level Estimated
18:00 44.8042 -93.0575 113° Southeast 269 310 6,100  Level Minneapolis Center
18:01 44.7185 -92.6277 113° Southeast  Level Estimated
18:01 44.7700 -92.9400 112° Southeast 322 371 8,500  Level Minneapolis Center
18:02 44.6558 -92.4955 124° Southeast  Level FlightAware Approximate
18:02 44.7406 -92.8392 112° Southeast 342 394 10,800  Level Minneapolis Center
18:03 44.6027 -92.3447 117° Southeast  Level FlightAware Approximate
18:03 44.6833 -92.6842 117° Southeast 375 432 13,700  Level Minneapolis Center
18:04 44.5499 -92.1996 115° Southeast  Level FlightAware Approximate
18:04 44.6447 -92.5797 117° Southeast 379 436 15,600  Level Minneapolis Center
18:05 44.5842 -92.4186 118° Southeast 387 445 18,400 2,460 Climbing Minneapolis Center
18:06 44.5208 -92.2497 118° Southeast 408 470 20,800 1,800 Climbing Minneapolis Center
18:07 44.4778 -92.1331 117° Southeast 419 482 22,200 1,680 Climbing Minneapolis Center
18:08 44.4106 -91.9553 118° Southeast 430 495 24,300 1,740 Climbing Minneapolis Center
18:09 44.3528 -91.8022 118° Southeast 443 510 25,900 1,320 Climbing Minneapolis Center
18:10 44.2928 -91.6489 119° Southeast 449 517 27,300 1,200 Climbing Minneapolis Center
18:11 44.2214 -91.4572 117° Southeast 461 531 28,700 1,320 Climbing Minneapolis Center
18:12 44.1503 -91.2742 118° Southeast 469 540 30,100 1,080 Climbing Minneapolis Center
18:13 44.0881 -91.1114 118° Southeast 476 548 31,000 780 Climbing Minneapolis Center
18:14 44.0244 -90.9486 118° Southeast 480 552 31,800 900 Climbing Minneapolis Center
18:15 43.9600 -90.7842 119° Southeast 486 559 32,900 960 Climbing Minneapolis Center
18:16 43.8956 -90.6208 119° Southeast 486 559 33,800 900 Climbing Minneapolis Center
18:17 43.8189 -90.4278 119° Southeast 481 554 34,800 540 Climbing Minneapolis Center
18:18 43.7553 -90.2658 118° Southeast 481 554 35,000 60 Climbing Minneapolis Center
18:19 43.7081 -90.0972 111° Southeast 472 543 35,000  Level Minneapolis Center
18:21 43.6800 -89.9233 103° East 465 535 35,000  Level Minneapolis Center
18:22 43.6492 -89.7506 104° East 464 534 35,000  Level Minneapolis Center
18:23 43.6181 -89.5786 104° East 462 532 35,000  Level Minneapolis Center
18:23 43.6017 -89.4933 105° East 460 529 35,000  Level Chicago Center
18:24 43.5686 -89.3214 105° East 463 533 35,000  Level Chicago Center
18:25 43.5369 -89.1486 104° East 466 536 35,000  Level Chicago Center
18:26 43.5042 -88.9733 104° East 470 541 35,000  Level Chicago Center
18:27 43.4650 -88.7692 105° East 473 544 35,000  Level Chicago Center
18:28 43.4317 -88.5928 105° East 475 547 35,000  Level Chicago Center
18:29 43.3947 -88.4178 106° East 482 555 35,000  Level Chicago Center
18:30 43.3583 -88.2219 104° East 478 550 35,000  Level Chicago Center
18:31 43.3231 -88.0450 105° East 480 552 35,000  Level Chicago Center
18:32 43.2881 -87.8703 105° East 477 549 35,000  Level Chicago Center
18:33 43.2536 -87.6936 105° East 479 551 35,000  Level Chicago Center
18:34 43.2181 -87.5167 105° East 480 552 35,000  Level Chicago Center
18:35 43.1781 -87.3272 106° East 483 556 35,000  Level Chicago Center
18:36 43.1433 -87.1514 105° East 481 554 35,000  Level Chicago Center
18:37 43.1061 -86.9761 106° East 481 554 35,000  Level Chicago Center
18:39 43.0625 -86.7653 106° East 481 554 35,000  Level Chicago Center
18:40 43.0258 -86.5908 106° East 481 554 35,000  Level Chicago Center
18:41 42.9886 -86.4181 106° East 478 550 35,000  Level Chicago Center
18:43 42.9133 -86.0750 107° East 481 554 35,000  Level Chicago Center
18:44 42.8692 -85.8703 106° East 482 555 35,000  Level Chicago Center
18:45 42.8322 -85.7008 107° East 474 545 35,000  Level Chicago Center
18:46 42.7942 -85.5325 107° East 470 541 35,000  Level Chicago Center
18:47 42.7411 -85.3653 113° Southeast 485 558 35,000  Level Chicago Center
18:48 42.6828 -85.1978 115° Southeast 492 566 35,000  Level Chicago Center
18:49 42.6114 -84.9989 116° Southeast 490 564 35,000  Level Chicago Center
18:50 42.5519 -84.8319 116° Southeast 493 567 35,000  Level Chicago Center
18:51 42.4922 -84.6664 116° Southeast 491 565 35,000  Level Chicago Center
18:51 42.4708 -84.6117 118° Southeast 481 554 35,000  Level Cleveland Center
18:52 42.4097 -84.4475 117° Southeast 481 554 35,000  Level Cleveland Center
18:53 42.3506 -84.2836 116° Southeast 481 554 35,000  Level Cleveland Center
18:54 42.2911 -84.1200 116° Southeast 481 554 35,000  Level Cleveland Center
18:55 42.2314 -83.9569 116° Southeast 481 554 35,000  Level Cleveland Center
18:56 42.1694 -83.7939 117° Southeast 481 554 35,000  Level Cleveland Center
18:57 42.1092 -83.6314 117° Southeast 481 554 35,000  Level Cleveland Center
18:58 42.0467 -83.4661 117° Southeast 486 559 35,000  Level Cleveland Center
18:59 41.9628 -83.3142 127° Southeast 502 578 35,000  Level Cleveland Center
19:00 41.8475 -83.1589 135° Southeast 521 600 35,000  Level Cleveland Center
19:01 41.7422 -83.0183 135° Southeast 527 606 35,000  Level Cleveland Center
19:02 41.6569 -82.9067 136° Southeast 532 612 35,000  Level Cleveland Center
19:03 41.5311 -82.7383 135° Southeast 532 612 35,000  Level Cleveland Center
19:04 41.4272 -82.6047 136° Southeast 527 606 35,000  Level Cleveland Center
19:05 41.3211 -82.4658 135° Southeast 527 606 35,000  Level Cleveland Center
19:06 41.2169 -82.3306 136° Southeast 527 606 35,000  Level Cleveland Center
19:07 41.1128 -82.1953 136° Southeast 527 606 35,000  Level Cleveland Center
19:08 41.0061 -82.0606 136° Southeast 527 606 35,000  Level Cleveland Center
19:09 40.9014 -81.9264 136° Southeast 527 606 35,000  Level Cleveland Center
19:10 40.7944 -81.7900 136° Southeast 527 606 35,000  Level Cleveland Center
19:11 40.6894 -81.6564 136° Southeast 527 606 35,000  Level Cleveland Center
19:12 40.5844 -81.5208 136° Southeast 527 606 35,000  Level Cleveland Center
19:13 40.4853 -81.3992 137° Southeast 532 612 35,000  Level Cleveland Center
19:14 40.3800 -81.2644 136° Southeast 532 612 35,000  Level Cleveland Center
19:15 40.2742 -81.1300 136° Southeast 527 606 35,000  Level Cleveland Center
19:16 40.1664 -80.9986 137° Southeast 527 606 35,000  Level Cleveland Center
19:17 40.0606 -80.8625 135° Southeast 527 606 35,000  Level Cleveland Center
19:18 39.9544 -80.7267 136° Southeast 527 606 35,000  Level Cleveland Center
19:19 39.8544 -80.5858 133° Southeast 527 606 35,000  Level Cleveland Center
19:20 39.7461 -80.4344 133° Southeast 527 606 35,000  Level Cleveland Center
19:21 39.6519 -80.2919 131° Southeast 527 606 35,000  Level Cleveland Center
19:22 39.6186 -80.2200 121° Southeast 517 595 35,000  Level Washington Center
19:23 39.5600 -80.0572 115° Southeast 494 568 35,000  Level Washington Center
19:24 39.4994 -79.8947 116° Southeast 494 568 35,000 -1,380 Level Washington Center
19:25 39.4361 -79.7325 117° Southeast 499 574 32,300 -2,040 Descending Washington Center
19:26 39.3750 -79.5681 116° Southeast 504 580 31,000 -720 Descending Washington Center
19:27 39.3158 -79.4064 115° Southeast 498 573 30,900 -1,200 Descending Washington Center
19:28 39.2619 -79.2614 116° Southeast 473 544 28,600 -1,980 Descending Washington Center
19:29 39.2392 -79.1183 102° East 418 481 27,000 -1,320 Descending Washington Center
19:30 39.2264 -78.9783 97° East 408 470 26,000 -1,440 Descending Washington Center
19:31 39.2114 -78.8383 98° East 397 457 24,100 -2,040 Descending Washington Center
19:32 39.1983 -78.7064 97° East 385 443 22,000 -2,040 Descending Washington Center
19:33 39.1869 -78.5775 96° East 372 428 20,200 -1,860 Descending Washington Center
19:34 39.1731 -78.4592 99° East 352 405 18,400 -1,740 Descending Washington Center
19:35 39.1572 -78.3406 100° East 340 391 16,700 -1,320 Descending Washington Center
19:36 39.1306 -78.2300 107° East 328 377 15,900 -780 Descending Washington Center
19:37 39.1056 -78.1328 108° East 322 371 15,200 -900 Descending Washington Center
19:38 39.0764 -78.0222 109° East 322 371 14,200 -1,020 Descending Washington Center
19:39 39.0494 -77.9142 108° East 322 371 13,200 -1,380 Descending Washington Center
19:40 39.0203 -77.8039 109° East 322 371 11,500 -1,080 Descending Washington Center
19:42 38.9667 -77.5833 107° East 316 364 10,200 -1,020 Descending Potomac TRACON
19:42 38.9333 -77.5000 117° Southeast 305 351 8,700 -1,560 Descending Potomac TRACON
19:43 38.9000 -77.4000 113° Southeast 288 331 7,300 -1,320 Descending Potomac TRACON
19:45 38.8500 -77.3167 128° Southeast 267 307 6,100 -660 Descending Potomac TRACON
19:46 38.8167 -77.2500 123° Southeast 213 245 6,000 -120 Descending Potomac TRACON
19:47 38.8000 -77.1833 108° East 215 247 5,900 -540 Descending Potomac TRACON
19:48 38.7667 -77.1167 123° Southeast 209 241 5,000 -480 Descending Potomac TRACON
19:49 38.7167 -77.1167 180° South 193 222 5,000 -300 Level Potomac TRACON
19:50 38.6667 -77.1000 165° South 191 220 4,500 -540 Descending Potomac TRACON
19:51 38.6000 -77.1000 180° South 190 219 4,000 -300 Descending Potomac TRACON
19:52 38.5500 -77.1000 180° South 202 232 3,900 -540 Descending Potomac TRACON
19:53 38.5833 -77.0500 50° Northeast 168 193 3,000 -480 Descending Potomac TRACON
19:54 38.6167 -77.0500 360° North 150 173 3,000 -180 Level Potomac TRACON
19:55 38.6667 -77.0333 15° North 140 161 2,700 -300 Descending Potomac TRACON